TimeMST,TemperatureF,Dew PointF,Humidity,Sea Level PressureIn,VisibilityMPH,Wind Direction,Wind SpeedMPH,Gust SpeedMPH,PrecipitationIn,Events,Conditions,WindDirDegrees,DateUTC
12:00 AM,15.8,12.2,86,30.01,1.0,East,11.5,-,0.00,Snow,Light Snow,90,2012-12-09 07:00:00
12:42 AM,14.0,10.4,86,30.02,2.0,SE,6.9,-,0.01,Snow,Light Snow,130,2012-12-09 07:42:00
12:53 AM,14.0,10.9,88,30.16,2.5,SE,8.1,-,0.01,Snow,Light Snow,140,2012-12-09 07:53:00
1:11 AM,14.0,10.4,86,30.03,2.0,SE,9.2,-,0.00,Snow,Light Snow,130,2012-12-09 08:11:00
1:23 AM,12.2,10.4,92,30.03,2.0,ESE,10.4,-,0.00,Snow,Light Snow,120,2012-12-09 08:23:00
1:25 AM,12.2,8.6,85,30.03,1.8,ESE,9.2,-,0.00,Snow,Light Snow,120,2012-12-09 08:25:00
1:34 AM,12.2,8.6,85,30.04,1.5,SE,9.2,-,0.00,Snow,Light Snow,130,2012-12-09 08:34:00
1:49 AM,12.2,8.6,85,30.04,2.0,SE,9.2,-,0.00,Snow,Light Snow,140,2012-12-09 08:49:00
1:53 AM,12.0,9.0,88,30.19,2.0,SE,10.4,-,0.00,Snow,Light Snow,140,2012-12-09 08:53:00
2:09 AM,12.2,8.6,85,30.05,2.5,SE,11.5,-,0.01,Snow,Light Snow,130,2012-12-09 09:09:00
2:21 AM,12.2,8.6,85,30.05,3.0,SE,10.4,-,0.01,Snow,Light Snow,130,2012-12-09 09:21:00
2:27 AM,12.2,8.6,85,30.05,2.5,SE,8.1,-,0.01,Snow,Light Snow,130,2012-12-09 09:27:00
2:33 AM,12.2,8.6,85,30.05,3.0,SE,10.4,-,0.01,Snow,Light Snow,130,2012-12-09 09:33:00
2:53 AM,12.9,9.0,84,30.20,3.0,SE,6.9,-,0.01,Snow,Light Snow,130,2012-12-09 09:53:00
3:27 AM,12.2,8.6,85,30.07,2.0,Calm,Calm,-,0.00,Snow,Light Snow,0,2012-12-09 10:27:00
3:35 AM,12.2,8.6,85,30.07,1.2,SW,3.5,-,0.00,Snow,Light Snow,220,2012-12-09 10:35:00
3:53 AM,12.9,9.0,84,30.22,1.2,Calm,Calm,-,0.00,Snow,Light Snow,0,2012-12-09 10:53:00
4:28 AM,12.2,8.6,85,30.08,2.5,WSW,3.5,-,0.01,Snow,Light Snow,240,2012-12-09 11:28:00
4:35 AM,12.2,8.6,85,30.08,5.0,West,3.5,-,0.01,,Overcast,260,2012-12-09 11:35:00
4:53 AM,12.9,9.0,84,30.25,3.0,West,5.8,-,0.01,Snow,Light Snow,270,2012-12-09 11:53:00
5:06 AM,12.2,8.6,85,30.09,2.0,West,3.5,-,0.00,Snow,Light Snow,280,2012-12-09 12:06:00
5:08 AM,12.2,8.6,85,30.09,1.8,West,3.5,-,0.00,Snow,Light Snow,280,2012-12-09 12:08:00
5:24 AM,12.2,8.6,85,30.09,2.5,West,5.8,-,0.01,Snow,Light Snow,280,2012-12-09 12:24:00
5:28 AM,10.4,6.8,85,30.09,3.0,West,4.6,-,0.01,Snow,Light Snow,270,2012-12-09 12:28:00
5:53 AM,10.0,6.1,84,30.30,8.0,West,4.6,-,0.01,,Overcast,270,2012-12-09 12:53:00
6:46 AM,10.4,-0.4,62,30.13,9.0,WSW,8.1,-,N/A,,Mostly Cloudy,240,2012-12-09 13:46:00
6:53 AM,9.0,-0.0,67,30.35,10.0,WSW,9.2,-,N/A,,Scattered Clouds,240,2012-12-09 13:53:00
7:53 AM,8.1,-2.0,64,30.37,10.0,SSW,3.5,-,N/A,,Scattered Clouds,210,2012-12-09 14:53:00
8:53 AM,5.0,3.0,92,30.41,8.0,Calm,Calm,-,N/A,,Clear,0,2012-12-09 15:53:00
9:53 AM,10.9,5.0,77,30.41,9.0,NNW,3.5,-,N/A,,Clear,330,2012-12-09 16:53:00
10:53 AM,12.0,7.0,80,30.40,10.0,Calm,Calm,-,N/A,,Clear,0,2012-12-09 17:53:00
11:53 AM,16.0,10.0,77,30.37,10.0,ESE,4.6,-,N/A,,Clear,110,2012-12-09 18:53:00
12:53 PM,18.0,9.0,68,30.32,10.0,ESE,10.4,-,N/A,,Clear,120,2012-12-09 19:53:00
1:53 PM,18.0,9.0,68,30.33,10.0,SSW,5.8,-,0.00,,Clear,200,2012-12-09 20:53:00
2:53 PM,18.0,8.1,65,30.29,10.0,West,3.5,-,0.00,,Clear,270,2012-12-09 21:53:00
3:53 PM,16.0,7.0,68,30.28,10.0,SSW,3.5,-,0.00,Snow,Light Snow,200,2012-12-09 22:53:00
4:53 PM,10.9,3.0,70,30.28,10.0,SW,5.8,-,0.00,,Clear,230,2012-12-09 23:53:00
5:53 PM,10.0,1.9,70,30.28,10.0,SW,5.8,-,N/A,,Clear,220,2012-12-10 00:53:00
6:53 PM,10.0,1.0,67,30.23,10.0,SSW,3.5,-,N/A,,Partly Cloudy,210,2012-12-10 01:53:00
7:53 PM,8.1,-0.0,70,30.23,10.0,West,6.9,-,N/A,,Partly Cloudy,260,2012-12-10 02:53:00
8:53 PM,3.0,-2.0,80,30.23,10.0,South,3.5,-,N/A,,Clear,190,2012-12-10 03:53:00
9:53 PM,6.1,-0.0,76,30.17,10.0,SE,3.5,-,N/A,,Clear,140,2012-12-10 04:53:00
10:53 PM,8.1,-2.0,64,30.14,10.0,SSE,6.9,-,N/A,,Clear,160,2012-12-10 05:53:00
11:53 PM,7.0,-2.0,67,30.13,10.0,Calm,Calm,-,N/A,,Clear,0,2012-12-10 06:53:00